Time,TemperatureF,DewpointF,PressureIn,WindDirection,WindDirectionDegrees,WindSpeedMPH,WindSpeedGustMPH,Humidity,HourlyPrecipIn,Conditions,Clouds,dailyrainin,SoftwareType,DateUTC
2013-09-27 00:02:00,59.9,57.9,29.84,SE,134,2.0,3.0,93,0.00,,,0.00,WeatherCatV1.21B27,2013-09-26 23:02:00,
2013-09-27 00:07:00,59.8,57.8,29.84,ESE,105,2.0,3.0,93,0.00,,,0.00,WeatherCatV1.21B27,2013-09-26 23:07:00,
2013-09-27 00:12:00,59.7,57.7,29.84,East,97,1.0,5.0,93,0.00,,,0.00,WeatherCatV1.21B27,2013-09-26 23:12:00,
2013-09-27 00:17:00,59.6,57.6,29.84,SE,129,1.0,3.0,93,0.00,,,0.00,WeatherCatV1.21B27,2013-09-26 23:17:00,
2013-09-27 00:22:00,59.5,57.5,29.84,SE,137,3.0,3.0,93,0.00,,,0.00,WeatherCatV1.21B27,2013-09-26 23:22:00,
2013-09-27 00:27:00,59.3,57.3,29.84,East,91,2.0,3.0,93,0.00,,,0.00,WeatherCatV1.21B27,2013-09-26 23:27:00,
2013-09-27 00:32:00,59.2,57.5,29.84,ESE,117,2.0,4.0,94,0.00,,,0.00,WeatherCatV1.21B27,2013-09-26 23:32:00,
2013-09-27 00:37:00,59.0,57.3,29.84,SE,133,1.0,3.0,94,0.00,,,0.00,WeatherCatV1.21B27,2013-09-26 23:37:00,
2013-09-27 00:42:00,58.9,57.2,29.84,SSE,151,3.0,3.0,94,0.00,,,0.00,WeatherCatV1.21B27,2013-09-26 23:42:00,
2013-09-27 00:47:00,58.8,57.1,29.84,ESE,107,1.0,4.0,94,0.00,,,0.00,WeatherCatV1.21B27,2013-09-26 23:47:00,
2013-09-27 00:52:00,58.7,57.0,29.84,SE,124,1.0,3.0,94,0.00,,,0.00,WeatherCatV1.21B27,2013-09-26 23:52:00,
2013-09-27 00:57:00,58.6,56.9,29.84,ESE,118,2.0,2.0,94,0.00,,,0.00,WeatherCatV1.21B27,2013-09-26 23:57:00,
2013-09-27 01:02:00,58.6,56.9,29.84,East,99,2.0,3.0,94,0.00,,,0.00,WeatherCatV1.21B27,2013-09-27 00:02:00,
2013-09-27 01:07:00,58.5,56.8,29.84,ESE,116,2.0,5.0,94,0.00,,,0.00,WeatherCatV1.21B27,2013-09-27 00:07:00,
2013-09-27 01:10:00,58.4,56.7,29.84,ESE,122,3.0,3.0,94,0.00,,,0.00,WeatherCatV1.21B27,2013-09-27 00:10:00,
2013-09-27 01:15:00,58.2,56.5,29.84,ESE,117,3.0,3.0,94,0.00,,,0.00,WeatherCatV1.21B27,2013-09-27 00:15:00,
2013-09-27 01:20:00,58.2,56.5,29.84,SE,144,4.0,5.0,94,0.00,,,0.00,WeatherCatV1.21B27,2013-09-27 00:20:00,
2013-09-27 01:25:00,58.0,56.3,29.84,SE,135,3.0,3.0,94,0.00,,,0.00,WeatherCatV1.21B27,2013-09-27 00:25:00,
2013-09-27 01:30:00,58.0,56.3,29.84,SE,134,2.0,5.0,94,0.00,,,0.00,WeatherCatV1.21B27,2013-09-27 00:30:00,
2013-09-27 01:35:00,58.0,56.3,29.84,SE,124,3.0,3.0,94,0.00,,,0.00,WeatherCatV1.21B27,2013-09-27 00:35:00,
2013-09-27 01:40:00,58.0,56.3,29.84,SE,124,2.0,2.0,94,0.00,,,0.00,WeatherCatV1.21B27,2013-09-27 00:40:00,
2013-09-27 01:45:00,57.9,56.2,29.84,SSE,160,2.0,2.0,94,0.00,,,0.00,WeatherCatV1.21B27,2013-09-27 00:45:00,
2013-09-27 01:50:00,57.9,56.2,29.84,SE,135,4.0,5.0,94,0.00,,,0.00,WeatherCatV1.21B27,2013-09-27 00:50:00,
2013-09-27 01:55:00,57.8,56.1,29.84,SSE,148,3.0,4.0,94,0.00,,,0.00,WeatherCatV1.21B27,2013-09-27 00:55:00,
2013-09-27 02:00:00,57.7,56.0,29.84,South,180,2.0,2.0,94,0.00,,,0.00,WeatherCatV1.21B27,2013-09-27 01:00:00,
2013-09-27 02:05:00,57.7,56.0,29.84,ESE,115,3.0,5.0,94,0.00,,,0.00,WeatherCatV1.21B27,2013-09-27 01:05:00,
2013-09-27 02:10:00,57.7,56.0,29.84,SE,132,3.0,5.0,94,0.00,,,0.00,WeatherCatV1.21B27,2013-09-27 01:10:00,
2013-09-27 02:15:00,57.7,56.0,29.84,SE,136,2.0,7.0,94,0.00,,,0.00,WeatherCatV1.21B27,2013-09-27 01:15:00,
2013-09-27 02:20:00,57.7,56.0,29.84,SE,139,4.0,6.0,94,0.00,,,0.00,WeatherCatV1.21B27,2013-09-27 01:20:00,
2013-09-27 02:25:00,57.7,56.0,29.84,SE,131,6.0,7.0,94,0.00,,,0.00,WeatherCatV1.21B27,2013-09-27 01:25:00,
2013-09-27 02:30:00,57.8,56.1,29.83,SSE,154,4.0,5.0,94,0.00,,,0.00,WeatherCatV1.21B27,2013-09-27 01:30:00,
2013-09-27 02:35:00,57.8,55.8,29.83,ESE,103,5.0,7.0,93,0.00,,,0.00,WeatherCatV1.21B27,2013-09-27 01:35:00,
2013-09-27 02:40:00,57.8,55.8,29.83,SE,135,2.0,7.0,93,0.00,,,0.00,WeatherCatV1.21B27,2013-09-27 01:40:00,
2013-09-27 02:45:00,57.8,55.8,29.83,SSE,155,4.0,6.0,93,0.00,,,0.00,WeatherCatV1.21B27,2013-09-27 01:45:00,
2013-09-27 02:50:00,57.6,55.6,29.83,SE,144,3.0,3.0,93,0.00,,,0.00,WeatherCatV1.21B27,2013-09-27 01:50:00,
2013-09-27 02:55:00,57.5,55.5,29.83,SE,141,2.0,8.0,93,0.00,,,0.00,WeatherCatV1.21B27,2013-09-27 01:55:00,
2013-09-27 03:00:00,57.3,55.3,29.83,ESE,117,4.0,4.0,93,0.00,,,0.00,WeatherCatV1.21B27,2013-09-27 02:00:00,
2013-09-27 03:05:00,57.2,55.5,29.83,SSE,148,3.0,5.0,94,0.00,,,0.00,WeatherCatV1.21B27,2013-09-27 02:05:00,
2013-09-27 03:10:00,57.1,55.4,29.83,ESE,116,3.0,4.0,94,0.00,,,0.00,WeatherCatV1.21B27,2013-09-27 02:10:00,
2013-09-27 03:15:00,57.0,55.3,29.83,SE,136,1.0,4.0,94,0.00,,,0.00,WeatherCatV1.21B27,2013-09-27 02:15:00,
2013-09-27 03:20:00,57.0,55.3,29.83,SE,139,1.0,2.0,94,0.00,,,0.00,WeatherCatV1.21B27,2013-09-27 02:20:00,
2013-09-27 03:26:00,56.9,55.2,29.83,ESE,116,2.0,2.0,94,0.00,,,0.00,WeatherCatV1.21B27,2013-09-27 02:26:00,
2013-09-27 03:30:00,56.9,55.2,29.83,SE,129,1.0,4.0,94,0.00,,,0.00,WeatherCatV1.21B27,2013-09-27 02:30:00,
2013-09-27 03:35:00,56.8,55.1,29.83,SE,136,1.0,3.0,94,0.00,,,0.00,WeatherCatV1.21B27,2013-09-27 02:35:00,
2013-09-27 03:40:00,56.8,55.1,29.83,SE,134,1.0,1.0,94,0.00,,,0.00,WeatherCatV1.21B27,2013-09-27 02:40:00,
2013-09-27 03:45:00,56.8,55.1,29.82,SE,130,0.0,1.0,94,0.00,,,0.00,WeatherCatV1.21B27,2013-09-27 02:45:00,
2013-09-27 03:50:00,56.8,55.1,29.82,ESE,114,3.0,5.0,94,0.00,,,0.00,WeatherCatV1.21B27,2013-09-27 02:50:00,
2013-09-27 03:55:00,56.8,55.1,29.82,SE,136,1.0,1.0,94,0.00,,,0.00,WeatherCatV1.21B27,2013-09-27 02:55:00,
2013-09-27 04:00:00,56.8,55.4,29.82,ESE,119,1.0,2.0,95,0.00,,,0.00,WeatherCatV1.21B27,2013-09-27 03:00:00,
2013-09-27 04:05:00,56.9,55.5,29.82,SSE,150,3.0,4.0,95,0.00,,,0.00,WeatherCatV1.21B27,2013-09-27 03:05:00,
2013-09-27 04:10:00,57.0,55.3,29.82,SE,124,2.0,6.0,94,0.00,,,0.00,WeatherCatV1.21B27,2013-09-27 03:10:00,
2013-09-27 04:15:00,57.2,55.5,29.82,SSE,151,3.0,6.0,94,0.00,,,0.00,WeatherCatV1.21B27,2013-09-27 03:15:00,
2013-09-27 04:20:00,57.4,55.4,29.82,SSE,160,4.0,6.0,93,0.00,,,0.00,WeatherCatV1.21B27,2013-09-27 03:20:00,
2013-09-27 04:25:00,57.4,55.4,29.82,SSE,165,1.0,1.0,93,0.00,,,0.00,WeatherCatV1.21B27,2013-09-27 03:25:00,
2013-09-27 04:30:00,57.4,55.4,29.82,SE,142,1.0,2.0,93,0.00,,,0.00,WeatherCatV1.21B27,2013-09-27 03:30:00,
2013-09-27 04:35:00,57.5,55.5,29.82,SE,127,1.0,1.0,93,0.00,,,0.00,WeatherCatV1.21B27,2013-09-27 03:35:00,
2013-09-27 04:40:00,57.5,55.2,29.82,SE,139,0.0,1.0,92,0.00,,,0.00,WeatherCatV1.21B27,2013-09-27 03:40:00,
2013-09-27 04:45:00,57.4,55.1,29.82,SE,134,1.0,1.0,92,0.00,,,0.00,WeatherCatV1.21B27,2013-09-27 03:45:00,
2013-09-27 04:50:00,57.4,55.1,29.82,SE,141,2.0,4.0,92,0.00,,,0.00,WeatherCatV1.21B27,2013-09-27 03:50:00,
2013-09-27 04:55:00,57.3,55.0,29.82,SE,139,1.0,1.0,92,0.00,,,0.00,WeatherCatV1.21B27,2013-09-27 03:55:00,
2013-09-27 05:00:00,57.3,55.3,29.81,SE,128,2.0,3.0,93,0.00,,,0.00,WeatherCatV1.21B27,2013-09-27 04:00:00,
2013-09-27 05:01:00,57.3,55.3,29.81,SE,136,3.0,3.0,93,0.00,,,0.00,WeatherCatV1.21B27,2013-09-27 04:01:00,
2013-09-27 05:06:00,57.2,55.2,29.82,SSE,162,4.0,5.0,93,0.00,,,0.00,WeatherCatV1.21B27,2013-09-27 04:06:00,
2013-09-27 05:11:00,57.2,55.2,29.81,SSE,149,1.0,3.0,93,0.00,,,0.00,WeatherCatV1.21B27,2013-09-27 04:11:00,
2013-09-27 05:16:00,57.1,55.1,29.81,SE,144,3.0,5.0,93,0.00,,,0.00,WeatherCatV1.21B27,2013-09-27 04:16:00,
2013-09-27 05:21:00,57.1,55.1,29.81,SE,139,3.0,4.0,93,0.00,,,0.00,WeatherCatV1.21B27,2013-09-27 04:21:00,
2013-09-27 05:26:00,57.1,55.1,29.82,SSE,155,3.0,3.0,93,0.00,,,0.00,WeatherCatV1.21B27,2013-09-27 04:26:00,
2013-09-27 05:31:00,57.0,55.0,29.81,ESE,110,3.0,5.0,93,0.00,,,0.00,WeatherCatV1.21B27,2013-09-27 04:31:00,
2013-09-27 05:36:00,57.0,55.0,29.81,SE,136,1.0,4.0,93,0.00,,,0.00,WeatherCatV1.21B27,2013-09-27 04:36:00,
2013-09-27 05:41:00,56.9,54.9,29.81,SE,135,2.0,3.0,93,0.00,,,0.00,WeatherCatV1.21B27,2013-09-27 04:41:00,
2013-09-27 05:46:00,56.8,54.8,29.81,ESE,118,2.0,3.0,93,0.00,,,0.00,WeatherCatV1.21B27,2013-09-27 04:46:00,
2013-09-27 05:51:00,56.7,54.7,29.81,East,89,3.0,3.0,93,0.00,,,0.00,WeatherCatV1.21B27,2013-09-27 04:51:00,
2013-09-27 05:56:00,56.5,54.5,29.81,East,97,0.0,0.0,93,0.00,,,0.00,WeatherCatV1.21B27,2013-09-27 04:56:00,
2013-09-27 06:01:00,56.3,54.3,29.81,East,97,0.0,0.0,93,0.00,,,0.00,WeatherCatV1.21B27,2013-09-27 05:01:00,
2013-09-27 06:06:00,56.1,54.4,29.81,ESE,118,1.0,1.0,94,0.00,,,0.00,WeatherCatV1.21B27,2013-09-27 05:06:00,
2013-09-27 06:11:00,56.0,54.3,29.81,ESE,115,0.0,1.0,94,0.00,,,0.00,WeatherCatV1.21B27,2013-09-27 05:11:00,
2013-09-27 06:16:00,55.8,54.1,29.81,SE,137,0.0,2.0,94,0.00,,,0.00,WeatherCatV1.21B27,2013-09-27 05:16:00,
2013-09-27 06:21:00,55.7,54.0,29.81,ESE,112,1.0,2.0,94,0.00,,,0.00,WeatherCatV1.21B27,2013-09-27 05:21:00,
2013-09-27 06:26:00,55.5,53.8,29.80,ESE,105,0.0,1.0,94,0.00,,,0.00,WeatherCatV1.21B27,2013-09-27 05:26:00,
2013-09-27 06:31:00,55.3,53.9,29.81,ESE,110,0.0,1.0,95,0.00,,,0.00,WeatherCatV1.21B27,2013-09-27 05:31:00,
2013-09-27 06:36:00,55.2,53.8,29.80,ESE,117,0.0,1.0,95,0.00,,,0.00,WeatherCatV1.21B27,2013-09-27 05:36:00,
2013-09-27 06:41:00,55.1,53.7,29.81,East,101,1.0,2.0,95,0.00,,,0.00,WeatherCatV1.21B27,2013-09-27 05:41:00,
2013-09-27 06:46:00,55.0,53.6,29.81,East,84,0.0,0.0,95,0.00,,,0.00,WeatherCatV1.21B27,2013-09-27 05:46:00,
2013-09-27 06:51:00,54.7,53.3,29.81,NE,40,1.0,2.0,95,0.00,,,0.00,WeatherCatV1.21B27,2013-09-27 05:51:00,
2013-09-27 06:56:00,54.6,53.2,29.81,NNE,30,1.0,1.0,95,0.00,,,0.00,WeatherCatV1.21B27,2013-09-27 05:56:00,
2013-09-27 07:01:00,54.5,53.1,29.81,ENE,58,0.0,1.0,95,0.00,,,0.00,WeatherCatV1.21B27,2013-09-27 06:01:00,
2013-09-27 07:06:00,54.3,52.9,29.81,ENE,57,0.0,0.0,95,0.00,,,0.00,WeatherCatV1.21B27,2013-09-27 06:06:00,
2013-09-27 07:11:00,54.1,52.7,29.81,ENE,57,0.0,0.0,95,0.00,,,0.00,WeatherCatV1.21B27,2013-09-27 06:11:00,
2013-09-27 07:16:00,54.1,53.0,29.81,ENE,59,1.0,1.0,96,0.00,,,0.00,WeatherCatV1.21B27,2013-09-27 06:16:00,
2013-09-27 07:21:00,54.3,53.2,29.81,East,101,0.0,0.0,96,0.00,,,0.00,WeatherCatV1.21B27,2013-09-27 06:21:00,
2013-09-27 07:26:00,54.3,53.2,29.81,East,101,0.0,1.0,96,0.00,,,0.00,WeatherCatV1.21B27,2013-09-27 06:26:00,
2013-09-27 07:31:00,54.3,53.2,29.81,ESE,114,0.0,1.0,96,0.00,,,0.00,WeatherCatV1.21B27,2013-09-27 06:31:00,
2013-09-27 07:36:00,54.2,53.1,29.81,ESE,114,0.0,0.0,96,0.00,,,0.00,WeatherCatV1.21B27,2013-09-27 06:36:00,
2013-09-27 07:41:00,54.1,53.0,29.81,ENE,75,0.0,1.0,96,0.00,,,0.00,WeatherCatV1.21B27,2013-09-27 06:41:00,
2013-09-27 07:46:00,54.1,53.0,29.81,ESE,113,0.0,1.0,96,0.00,,,0.00,WeatherCatV1.21B27,2013-09-27 06:46:00,
2013-09-27 07:51:00,54.1,53.0,29.81,SSE,155,1.0,4.0,96,0.00,,,0.00,WeatherCatV1.21B27,2013-09-27 06:51:00,
2013-09-27 07:56:00,54.2,53.1,29.81,ESE,105,2.0,2.0,96,0.00,,,0.00,WeatherCatV1.21B27,2013-09-27 06:56:00,
2013-09-27 08:01:00,54.2,53.1,29.81,East,91,0.0,3.0,96,0.00,,,0.00,WeatherCatV1.21B27,2013-09-27 07:01:00,
2013-09-27 08:06:00,54.3,53.2,29.81,East,99,0.0,0.0,96,0.00,,,0.00,WeatherCatV1.21B27,2013-09-27 07:06:00,
2013-09-27 08:11:00,54.3,52.9,29.81,East,90,2.0,3.0,95,0.00,,,0.00,WeatherCatV1.21B27,2013-09-27 07:11:00,
2013-09-27 08:16:00,54.3,52.9,29.81,SE,124,1.0,1.0,95,0.00,,,0.00,WeatherCatV1.21B27,2013-09-27 07:16:00,
2013-09-27 08:21:00,54.3,52.9,29.81,East,101,3.0,3.0,95,0.00,,,0.00,WeatherCatV1.21B27,2013-09-27 07:21:00,
2013-09-27 08:26:00,54.5,53.4,29.81,ESE,110,0.0,1.0,96,0.00,,,0.00,WeatherCatV1.21B27,2013-09-27 07:26:00,
2013-09-27 08:31:00,54.6,53.2,29.81,ESE,122,0.0,2.0,95,0.00,,,0.00,WeatherCatV1.21B27,2013-09-27 07:31:00,
2013-09-27 08:40:00,55.2,53.8,29.81,ESE,121,1.0,2.0,95,0.00,,,0.00,WeatherCatV1.21B27,2013-09-27 07:40:00,
2013-09-27 08:45:00,55.5,54.1,29.81,SE,127,1.0,1.0,95,0.00,,,0.00,WeatherCatV1.21B27,2013-09-27 07:45:00,
2013-09-27 08:49:00,55.7,54.3,29.81,SE,136,0.0,2.0,95,0.00,,,0.00,WeatherCatV1.21B27,2013-09-27 07:49:00,
2013-09-27 08:54:00,55.8,54.1,29.81,ESE,117,2.0,2.0,94,0.00,,,0.00,WeatherCatV1.21B27,2013-09-27 07:54:00,
2013-09-27 08:59:00,55.8,54.1,29.81,SE,131,0.0,2.0,94,0.00,,,0.00,WeatherCatV1.21B27,2013-09-27 07:59:00,
2013-09-27 09:04:00,56.0,54.3,29.81,ESE,117,1.0,2.0,94,0.00,,,0.00,WeatherCatV1.21B27,2013-09-27 08:04:00,
2013-09-27 09:09:00,56.2,54.5,29.81,SE,139,1.0,1.0,94,0.00,,,0.00,WeatherCatV1.21B27,2013-09-27 08:09:00,
2013-09-27 09:14:00,56.5,54.5,29.81,East,100,1.0,3.0,93,0.00,,,0.00,WeatherCatV1.21B27,2013-09-27 08:14:00,
2013-09-27 09:19:00,56.9,54.9,29.81,East,98,2.0,3.0,93,0.00,,,0.00,WeatherCatV1.21B27,2013-09-27 08:19:00,
2013-09-27 09:24:00,57.4,55.4,29.81,SE,128,1.0,3.0,93,0.00,,,0.00,WeatherCatV1.21B27,2013-09-27 08:24:00,
2013-09-27 09:29:00,57.9,55.6,29.81,ESE,118,1.0,2.0,92,0.00,,,0.00,WeatherCatV1.21B27,2013-09-27 08:29:00,
2013-09-27 09:34:00,58.4,55.8,29.81,ESE,103,1.0,3.0,91,0.00,,,0.00,WeatherCatV1.21B27,2013-09-27 08:34:00,
2013-09-27 09:39:00,58.8,55.9,29.81,ESE,109,1.0,1.0,90,0.00,,,0.00,WeatherCatV1.21B27,2013-09-27 08:39:00,
2013-09-27 09:44:00,59.1,55.9,29.81,ESE,123,0.0,2.0,89,0.00,,,0.00,WeatherCatV1.21B27,2013-09-27 08:44:00,
2013-09-27 09:49:00,59.8,56.5,29.81,SE,136,0.0,1.0,89,0.00,,,0.00,WeatherCatV1.21B27,2013-09-27 08:49:00,
2013-09-27 09:54:00,60.3,56.4,29.81,SE,133,0.0,2.0,87,0.00,,,0.00,WeatherCatV1.21B27,2013-09-27 08:54:00,
2013-09-27 09:59:00,60.7,56.5,29.81,ESE,103,2.0,5.0,86,0.00,,,0.00,WeatherCatV1.21B27,2013-09-27 08:59:00,
2013-09-27 10:04:00,60.6,56.1,29.81,East,98,4.0,5.0,85,0.00,,,0.00,WeatherCatV1.21B27,2013-09-27 09:04:00,
2013-09-27 10:09:00,60.7,56.5,29.81,ESE,121,2.0,3.0,86,0.00,,,0.00,WeatherCatV1.21B27,2013-09-27 09:09:00,
2013-09-27 10:14:00,61.1,56.9,29.80,NNE,23,2.0,3.0,86,0.00,,,0.00,WeatherCatV1.21B27,2013-09-27 09:14:00,
2013-09-27 10:19:00,61.5,56.9,29.80,ESE,113,2.0,2.0,85,0.00,,,0.00,WeatherCatV1.21B27,2013-09-27 09:19:00,
2013-09-27 10:24:00,61.4,56.5,29.80,ESE,113,2.0,5.0,84,0.00,,,0.00,WeatherCatV1.21B27,2013-09-27 09:24:00,
2013-09-27 10:29:00,61.6,56.7,29.80,SE,146,0.0,4.0,84,0.00,,,0.00,WeatherCatV1.21B27,2013-09-27 09:29:00,
2013-09-27 10:34:00,62.2,57.6,29.81,East,99,3.0,3.0,85,0.00,,,0.00,WeatherCatV1.21B27,2013-09-27 09:34:00,
2013-09-27 10:39:00,62.3,57.4,29.81,SE,136,2.0,2.0,84,0.00,,,0.00,WeatherCatV1.21B27,2013-09-27 09:39:00,
2013-09-27 10:44:00,62.3,57.1,29.81,SE,135,0.0,3.0,83,0.00,,,0.00,WeatherCatV1.21B27,2013-09-27 09:44:00,
2013-09-27 10:49:00,62.7,57.5,29.81,SE,128,1.0,5.0,83,0.00,,,0.00,WeatherCatV1.21B27,2013-09-27 09:49:00,
2013-09-27 10:54:00,62.9,57.3,29.81,ESE,123,1.0,4.0,82,0.00,,,0.00,WeatherCatV1.21B27,2013-09-27 09:54:00,
2013-09-27 10:59:00,63.3,58.0,29.81,SSW,200,0.0,2.0,83,0.00,,,0.00,WeatherCatV1.21B27,2013-09-27 09:59:00,
2013-09-27 11:04:00,63.3,57.7,29.81,SSE,147,2.0,3.0,82,0.00,,,0.00,WeatherCatV1.21B27,2013-09-27 10:04:00,
2013-09-27 11:09:00,63.5,58.2,29.81,SSE,148,2.0,3.0,83,0.00,,,0.00,WeatherCatV1.21B27,2013-09-27 10:09:00,
2013-09-27 11:14:00,63.8,58.2,29.81,SSE,162,0.0,5.0,82,0.00,,,0.00,WeatherCatV1.21B27,2013-09-27 10:14:00,
2013-09-27 11:19:00,64.3,58.7,29.81,SE,143,0.0,1.0,82,0.00,,,0.00,WeatherCatV1.21B27,2013-09-27 10:19:00,
2013-09-27 11:24:00,64.5,58.2,29.81,ESE,113,2.0,3.0,80,0.00,,,0.00,WeatherCatV1.21B27,2013-09-27 10:24:00,
2013-09-27 11:29:00,64.6,58.3,29.81,ESE,111,4.0,4.0,80,0.00,,,0.00,WeatherCatV1.21B27,2013-09-27 10:29:00,
2013-09-27 11:34:00,64.4,58.4,29.80,ESE,115,4.0,5.0,81,0.00,,,0.00,WeatherCatV1.21B27,2013-09-27 10:34:00,
2013-09-27 11:39:00,64.3,58.3,29.80,NNE,30,3.0,4.0,81,0.00,,,0.00,WeatherCatV1.21B27,2013-09-27 10:39:00,
2013-09-27 11:44:00,64.5,58.9,29.80,ESE,109,1.0,2.0,82,0.00,,,0.00,WeatherCatV1.21B27,2013-09-27 10:44:00,
2013-09-27 11:49:00,64.3,58.7,29.81,SE,129,1.0,3.0,82,0.00,,,0.00,WeatherCatV1.21B27,2013-09-27 10:49:00,
2013-09-27 11:54:00,64.5,59.2,29.80,NW,314,2.0,4.0,83,0.00,,,0.00,WeatherCatV1.21B27,2013-09-27 10:54:00,
2013-09-27 11:59:00,64.4,59.1,29.80,NNE,14,5.0,5.0,83,0.00,,,0.00,WeatherCatV1.21B27,2013-09-27 10:59:00,
2013-09-27 12:04:00,64.3,59.0,29.80,NNE,17,3.0,4.0,83,0.00,,,0.00,WeatherCatV1.21B27,2013-09-27 11:04:00,
2013-09-27 12:09:00,64.4,59.1,29.80,North,349,5.0,7.0,83,0.00,,,0.00,WeatherCatV1.21B27,2013-09-27 11:09:00,
2013-09-27 12:14:00,64.0,58.7,29.80,NE,51,2.0,4.0,83,0.00,,,0.00,WeatherCatV1.21B27,2013-09-27 11:14:00,
2013-09-27 12:19:00,64.1,59.2,29.80,East,79,1.0,2.0,84,0.00,,,0.00,WeatherCatV1.21B27,2013-09-27 11:19:00,
2013-09-27 12:24:00,64.3,59.4,29.80,NNW,329,4.0,7.0,84,0.00,,,0.00,WeatherCatV1.21B27,2013-09-27 11:24:00,
2013-09-27 12:29:00,64.2,58.9,29.80,ENE,69,2.0,3.0,83,0.00,,,0.00,WeatherCatV1.21B27,2013-09-27 11:29:00,
2013-09-27 12:34:00,64.5,59.2,29.80,SSW,211,0.0,4.0,83,0.00,,,0.00,WeatherCatV1.21B27,2013-09-27 11:34:00,
2013-09-27 12:39:00,64.7,59.4,29.80,NW,326,1.0,3.0,83,0.00,,,0.00,WeatherCatV1.21B27,2013-09-27 11:39:00,
2013-09-27 12:44:00,64.7,59.8,29.80,NNW,338,1.0,3.0,84,0.00,,,0.00,WeatherCatV1.21B27,2013-09-27 11:44:00,
2013-09-27 12:49:00,64.7,59.8,29.80,SSW,201,0.0,2.0,84,0.00,,,0.00,WeatherCatV1.21B27,2013-09-27 11:49:00,
2013-09-27 12:54:00,64.8,59.5,29.80,ESE,111,2.0,3.0,83,0.00,,,0.00,WeatherCatV1.21B27,2013-09-27 11:54:00,
2013-09-27 12:59:00,64.9,59.6,29.80,SSE,158,1.0,2.0,83,0.00,,,0.00,WeatherCatV1.21B27,2013-09-27 11:59:00,
2013-09-27 13:04:00,64.9,59.6,29.80,SE,132,2.0,3.0,83,0.00,,,0.00,WeatherCatV1.21B27,2013-09-27 12:04:00,
2013-09-27 13:09:00,64.6,59.3,29.80,ESE,107,1.0,2.0,83,0.00,,,0.00,WeatherCatV1.21B27,2013-09-27 12:09:00,
2013-09-27 13:14:00,64.6,59.7,29.80,SSE,155,3.0,5.0,84,0.00,,,0.00,WeatherCatV1.21B27,2013-09-27 12:14:00,
2013-09-27 13:19:00,64.4,59.5,29.80,SE,134,2.0,3.0,84,0.00,,,0.00,WeatherCatV1.21B27,2013-09-27 12:19:00,
2013-09-27 13:24:00,64.4,59.8,29.80,SE,125,2.0,4.0,85,0.00,,,0.00,WeatherCatV1.21B27,2013-09-27 12:24:00,
2013-09-27 13:29:00,64.2,59.3,29.80,East,101,2.0,5.0,84,0.00,,,0.00,WeatherCatV1.21B27,2013-09-27 12:29:00,
2013-09-27 13:34:00,64.7,60.1,29.80,ESE,103,3.0,6.0,85,0.00,,,0.00,WeatherCatV1.21B27,2013-09-27 12:34:00,
2013-09-27 13:39:00,65.4,60.4,29.79,NW,322,1.0,5.0,84,0.00,,,0.00,WeatherCatV1.21B27,2013-09-27 12:39:00,
2013-09-27 13:44:00,66.5,61.5,29.79,ENE,66,1.0,2.0,84,0.00,,,0.00,WeatherCatV1.21B27,2013-09-27 12:44:00,
2013-09-27 13:49:00,67.0,60.6,29.79,ENE,58,2.0,5.0,80,0.00,,,0.00,WeatherCatV1.21B27,2013-09-27 12:49:00,
2013-09-27 13:54:00,67.0,61.0,29.79,ENE,63,1.0,5.0,81,0.00,,,0.00,WeatherCatV1.21B27,2013-09-27 12:54:00,
2013-09-27 13:59:00,66.8,60.8,29.79,SE,128,1.0,4.0,81,0.00,,,0.00,WeatherCatV1.21B27,2013-09-27 12:59:00,
2013-09-27 14:04:00,67.1,60.7,29.78,ESE,107,1.0,4.0,80,0.00,,,0.00,WeatherCatV1.21B27,2013-09-27 13:04:00,
2013-09-27 14:09:00,67.1,60.7,29.78,SSE,155,0.0,4.0,80,0.00,,,0.00,WeatherCatV1.21B27,2013-09-27 13:09:00,
2013-09-27 14:14:00,67.3,61.3,29.78,North,9,3.0,3.0,81,0.00,,,0.00,WeatherCatV1.21B27,2013-09-27 13:14:00,
2013-09-27 14:19:00,67.5,61.1,29.78,North,352,1.0,3.0,80,0.00,,,0.00,WeatherCatV1.21B27,2013-09-27 13:19:00,
2013-09-27 14:24:00,67.5,61.1,29.78,SE,131,5.0,9.0,80,0.00,,,0.00,WeatherCatV1.21B27,2013-09-27 13:24:00,
2013-09-27 14:29:00,67.2,60.8,29.78,SE,145,1.0,4.0,80,0.00,,,0.00,WeatherCatV1.21B27,2013-09-27 13:29:00,
2013-09-27 14:34:00,67.0,61.0,29.77,SE,136,0.0,1.0,81,0.00,,,0.00,WeatherCatV1.21B27,2013-09-27 13:34:00,
2013-09-27 14:39:00,67.1,61.1,29.77,SE,134,4.0,6.0,81,0.00,,,0.00,WeatherCatV1.21B27,2013-09-27 13:39:00,
2013-09-27 14:44:00,67.3,61.6,29.77,ESE,111,2.0,3.0,82,0.00,,,0.00,WeatherCatV1.21B27,2013-09-27 13:44:00,
2013-09-27 14:49:00,67.5,61.5,29.77,SE,131,4.0,6.0,81,0.00,,,0.00,WeatherCatV1.21B27,2013-09-27 13:49:00,
2013-09-27 14:54:00,67.5,61.5,29.77,SE,136,2.0,3.0,81,0.00,,,0.00,WeatherCatV1.21B27,2013-09-27 13:54:00,
2013-09-27 14:59:00,67.3,61.3,29.76,SE,138,2.0,6.0,81,0.00,,,0.00,WeatherCatV1.21B27,2013-09-27 13:59:00,
2013-09-27 15:04:00,67.5,61.1,29.77,SE,126,4.0,6.0,80,0.00,,,0.00,WeatherCatV1.21B27,2013-09-27 14:04:00,
2013-09-27 15:09:00,67.7,61.3,29.77,ESE,121,7.0,8.0,80,0.00,,,0.00,WeatherCatV1.21B27,2013-09-27 14:09:00,
2013-09-27 15:14:00,67.2,60.5,29.77,SE,131,6.0,7.0,79,0.00,,,0.00,WeatherCatV1.21B27,2013-09-27 14:14:00,
2013-09-27 15:19:00,66.8,60.8,29.76,SE,125,5.0,5.0,81,0.00,,,0.00,WeatherCatV1.21B27,2013-09-27 14:19:00,
2013-09-27 15:24:00,67.1,61.1,29.77,SE,135,2.0,5.0,81,0.00,,,0.00,WeatherCatV1.21B27,2013-09-27 14:24:00,
2013-09-27 15:29:00,67.0,60.6,29.77,ESE,110,5.0,6.0,80,0.00,,,0.00,WeatherCatV1.21B27,2013-09-27 14:29:00,
2013-09-27 15:34:00,66.9,60.9,29.77,SE,132,4.0,4.0,81,0.00,,,0.00,WeatherCatV1.21B27,2013-09-27 14:34:00,
2013-09-27 15:39:00,66.9,60.9,29.77,SSE,160,2.0,6.0,81,0.00,,,0.00,WeatherCatV1.21B27,2013-09-27 14:39:00,
2013-09-27 15:44:00,67.2,61.2,29.76,NNE,20,1.0,4.0,81,0.00,,,0.00,WeatherCatV1.21B27,2013-09-27 14:44:00,
2013-09-27 15:49:00,67.5,61.1,29.76,East,98,1.0,2.0,80,0.00,,,0.00,WeatherCatV1.21B27,2013-09-27 14:49:00,
2013-09-27 15:54:00,67.5,60.8,29.76,ESE,110,1.0,5.0,79,0.00,,,0.00,WeatherCatV1.21B27,2013-09-27 14:54:00,
2013-09-27 15:59:00,67.7,60.9,29.76,SE,128,2.0,3.0,79,0.00,,,0.00,WeatherCatV1.21B27,2013-09-27 14:59:00,
2013-09-27 16:04:00,68.1,61.3,29.76,ESE,111,3.0,4.0,79,0.00,,,0.00,WeatherCatV1.21B27,2013-09-27 15:04:00,
2013-09-27 16:09:00,68.3,61.2,29.76,SSW,197,0.0,2.0,78,0.00,,,0.00,WeatherCatV1.21B27,2013-09-27 15:09:00,
2013-09-27 16:14:00,68.6,61.1,29.76,SE,145,1.0,2.0,77,0.00,,,0.00,WeatherCatV1.21B27,2013-09-27 15:14:00,
2013-09-27 16:19:00,69.1,61.6,29.76,NNE,32,3.0,3.0,77,0.00,,,0.00,WeatherCatV1.21B27,2013-09-27 15:19:00,
2013-09-27 16:24:00,69.1,61.2,29.76,East,89,4.0,4.0,76,0.00,,,0.00,WeatherCatV1.21B27,2013-09-27 15:24:00,
2013-09-27 16:29:00,68.3,60.8,29.76,SE,128,3.0,8.0,77,0.00,,,0.00,WeatherCatV1.21B27,2013-09-27 15:29:00,
2013-09-27 16:34:00,67.9,61.1,29.75,SSE,148,2.0,4.0,79,0.00,,,0.00,WeatherCatV1.21B27,2013-09-27 15:34:00,
2013-09-27 16:39:00,68.0,61.2,29.76,ESE,118,2.0,5.0,79,0.00,,,0.00,WeatherCatV1.21B27,2013-09-27 15:39:00,
2013-09-27 16:44:00,68.2,61.4,29.76,East,89,4.0,7.0,79,0.00,,,0.00,WeatherCatV1.21B27,2013-09-27 15:44:00,
2013-09-27 16:49:00,68.0,61.2,29.76,SE,136,3.0,7.0,79,0.00,,,0.00,WeatherCatV1.21B27,2013-09-27 15:49:00,
2013-09-27 16:54:00,68.1,61.3,29.75,East,89,3.0,4.0,79,0.00,,,0.00,WeatherCatV1.21B27,2013-09-27 15:54:00,
2013-09-27 16:59:00,68.1,61.3,29.75,ENE,78,1.0,3.0,79,0.00,,,0.00,WeatherCatV1.21B27,2013-09-27 15:59:00,
2013-09-27 17:04:00,68.0,61.2,29.75,SE,142,0.0,2.0,79,0.00,,,0.00,WeatherCatV1.21B27,2013-09-27 16:04:00,
2013-09-27 17:09:00,68.1,61.3,29.75,NNW,342,1.0,2.0,79,0.00,,,0.00,WeatherCatV1.21B27,2013-09-27 16:09:00,
2013-09-27 17:14:00,68.1,61.3,29.75,SE,128,4.0,4.0,79,0.00,,,0.00,WeatherCatV1.21B27,2013-09-27 16:14:00,
2013-09-27 17:19:00,67.9,61.1,29.75,ESE,112,3.0,4.0,79,0.00,,,0.00,WeatherCatV1.21B27,2013-09-27 16:19:00,
2013-09-27 17:24:00,67.6,60.8,29.74,West,260,2.0,5.0,79,0.00,,,0.00,WeatherCatV1.21B27,2013-09-27 16:24:00,
2013-09-27 17:29:00,67.5,60.8,29.74,ENE,58,2.0,4.0,79,0.00,,,0.00,WeatherCatV1.21B27,2013-09-27 16:29:00,
2013-09-27 17:34:00,67.3,60.9,29.74,East,88,5.0,5.0,80,0.00,,,0.00,WeatherCatV1.21B27,2013-09-27 16:34:00,
2013-09-27 17:39:00,67.0,61.0,29.74,ESE,109,0.0,1.0,81,0.00,,,0.00,WeatherCatV1.21B27,2013-09-27 16:39:00,
2013-09-27 17:44:00,66.8,60.8,29.74,ESE,102,2.0,6.0,81,0.00,,,0.00,WeatherCatV1.21B27,2013-09-27 16:44:00,
2013-09-27 17:49:00,66.5,60.5,29.74,ESE,114,3.0,6.0,81,0.00,,,0.00,WeatherCatV1.21B27,2013-09-27 16:49:00,
2013-09-27 17:54:00,66.2,60.5,29.74,SSE,155,0.0,7.0,82,0.00,,,0.00,WeatherCatV1.21B27,2013-09-27 16:54:00,
2013-09-27 17:59:00,66.1,60.4,29.74,NNE,13,2.0,4.0,82,0.00,,,0.00,WeatherCatV1.21B27,2013-09-27 16:59:00,
2013-09-27 18:04:00,65.9,60.2,29.74,ESE,104,1.0,6.0,82,0.00,,,0.00,WeatherCatV1.21B27,2013-09-27 17:04:00,
2013-09-27 18:09:00,65.8,60.1,29.74,SSE,155,0.0,4.0,82,0.00,,,0.00,WeatherCatV1.21B27,2013-09-27 17:09:00,
2013-09-27 18:14:00,65.7,60.4,29.74,South,187,1.0,5.0,83,0.00,,,0.00,WeatherCatV1.21B27,2013-09-27 17:14:00,
2013-09-27 18:19:00,65.7,60.4,29.74,SE,126,2.0,5.0,83,0.00,,,0.00,WeatherCatV1.21B27,2013-09-27 17:19:00,
2013-09-27 18:24:00,65.6,60.3,29.74,ESE,117,1.0,3.0,83,0.00,,,0.00,WeatherCatV1.21B27,2013-09-27 17:24:00,
2013-09-27 18:26:00,65.5,59.8,29.74,ESE,118,2.0,8.0,82,0.00,,,0.00,WeatherCatV1.21B27,2013-09-27 17:26:00,
2013-09-27 18:31:00,65.4,59.8,29.74,ESE,113,4.0,4.0,82,0.00,,,0.00,WeatherCatV1.21B27,2013-09-27 17:31:00,
2013-09-27 18:36:00,65.2,59.6,29.74,East,93,4.0,4.0,82,0.00,,,0.00,WeatherCatV1.21B27,2013-09-27 17:36:00,
2013-09-27 18:41:00,65.0,59.4,29.74,SSE,150,4.0,7.0,82,0.00,,,0.00,WeatherCatV1.21B27,2013-09-27 17:41:00,
2013-09-27 18:46:00,64.9,59.6,29.74,SE,135,1.0,3.0,83,0.00,,,0.00,WeatherCatV1.21B27,2013-09-27 17:46:00,
2013-09-27 18:51:00,64.8,59.5,29.74,ESE,117,1.0,5.0,83,0.00,,,0.00,WeatherCatV1.21B27,2013-09-27 17:51:00,
2013-09-27 18:56:00,64.7,59.4,29.74,ESE,118,1.0,5.0,83,0.00,,,0.00,WeatherCatV1.21B27,2013-09-27 17:56:00,
2013-09-27 19:01:00,64.6,59.7,29.74,ESE,106,3.0,5.0,84,0.00,,,0.00,WeatherCatV1.21B27,2013-09-27 18:01:00,
2013-09-27 19:06:00,64.5,59.5,29.74,ESE,121,2.0,8.0,84,0.00,,,0.00,WeatherCatV1.21B27,2013-09-27 18:06:00,
2013-09-27 19:11:00,64.4,59.5,29.74,ENE,66,5.0,5.0,84,0.00,,,0.00,WeatherCatV1.21B27,2013-09-27 18:11:00,
2013-09-27 19:16:00,64.2,59.6,29.74,SE,136,5.0,5.0,85,0.00,,,0.00,WeatherCatV1.21B27,2013-09-27 18:16:00,
2013-09-27 19:21:00,64.1,59.5,29.74,ESE,114,1.0,4.0,85,0.00,,,0.00,WeatherCatV1.21B27,2013-09-27 18:21:00,
2013-09-27 19:26:00,64.0,59.7,29.74,SE,145,1.0,3.0,86,0.00,,,0.00,WeatherCatV1.21B27,2013-09-27 18:26:00,
2013-09-27 19:31:00,63.8,59.5,29.75,East,101,5.0,7.0,86,0.00,,,0.00,WeatherCatV1.21B27,2013-09-27 18:31:00,
2013-09-27 19:36:00,63.7,59.4,29.75,ESE,103,3.0,7.0,86,0.00,,,0.00,WeatherCatV1.21B27,2013-09-27 18:36:00,
2013-09-27 19:41:00,63.5,59.6,29.75,ESE,121,1.0,5.0,87,0.00,,,0.00,WeatherCatV1.21B27,2013-09-27 18:41:00,
2013-09-27 19:46:00,63.4,59.5,29.75,ESE,111,0.0,2.0,87,0.00,,,0.00,WeatherCatV1.21B27,2013-09-27 18:46:00,
2013-09-27 19:51:00,63.2,59.3,29.75,SE,124,0.0,1.0,87,0.00,,,0.00,WeatherCatV1.21B27,2013-09-27 18:51:00,
2013-09-27 19:56:00,63.1,59.5,29.75,East,89,1.0,2.0,88,0.00,,,0.00,WeatherCatV1.21B27,2013-09-27 18:56:00,
2013-09-27 20:01:00,63.0,59.4,29.75,NNE,13,2.0,4.0,88,0.00,,,0.00,WeatherCatV1.21B27,2013-09-27 19:01:00,
2013-09-27 20:06:00,63.0,59.4,29.75,East,91,1.0,4.0,88,0.00,,,0.00,WeatherCatV1.21B27,2013-09-27 19:06:00,
2013-09-27 20:11:00,63.0,59.4,29.74,ESE,112,0.0,1.0,88,0.00,,,0.00,WeatherCatV1.21B27,2013-09-27 19:11:00,
2013-09-27 20:16:00,62.9,59.3,29.74,SSW,207,0.0,3.0,88,0.00,,,0.00,WeatherCatV1.21B27,2013-09-27 19:16:00,
2013-09-27 20:21:00,62.8,59.2,29.75,ENE,68,0.0,3.0,88,0.00,,,0.00,WeatherCatV1.21B27,2013-09-27 19:21:00,
2013-09-27 20:26:00,62.8,59.2,29.75,NNE,20,2.0,2.0,88,0.00,,,0.00,WeatherCatV1.21B27,2013-09-27 19:26:00,
2013-09-27 20:31:00,62.7,59.1,29.74,ENE,60,0.0,1.0,88,0.00,,,0.00,WeatherCatV1.21B27,2013-09-27 19:31:00,
2013-09-27 20:36:00,62.7,59.1,29.74,SE,138,0.0,2.0,88,0.00,,,0.00,WeatherCatV1.21B27,2013-09-27 19:36:00,
2013-09-27 20:41:00,62.6,59.0,29.74,East,100,1.0,4.0,88,0.00,,,0.00,WeatherCatV1.21B27,2013-09-27 19:41:00,
2013-09-27 20:46:00,62.6,59.0,29.74,NNE,20,1.0,1.0,88,0.00,,,0.00,WeatherCatV1.21B27,2013-09-27 19:46:00,
2013-09-27 20:51:00,62.5,58.9,29.73,NE,37,2.0,3.0,88,0.00,,,0.00,WeatherCatV1.21B27,2013-09-27 19:51:00,
2013-09-27 20:56:00,62.4,58.8,29.73,NE,37,0.0,1.0,88,0.00,,,0.00,WeatherCatV1.21B27,2013-09-27 19:56:00,
2013-09-27 21:01:00,62.2,58.9,29.74,NW,309,1.0,2.0,89,0.00,,,0.00,WeatherCatV1.21B27,2013-09-27 20:01:00,
2013-09-27 21:06:00,62.2,58.9,29.74,North,356,0.0,2.0,89,0.00,,,0.00,WeatherCatV1.21B27,2013-09-27 20:06:00,
2013-09-27 21:11:00,62.1,58.8,29.74,East,97,0.0,1.0,89,0.00,,,0.00,WeatherCatV1.21B27,2013-09-27 20:11:00,
2013-09-27 21:16:00,62.0,58.7,29.74,SW,236,0.0,2.0,89,0.00,,,0.00,WeatherCatV1.21B27,2013-09-27 20:16:00,
2013-09-27 21:21:00,62.0,59.0,29.73,SE,126,0.0,2.0,90,0.00,,,0.00,WeatherCatV1.21B27,2013-09-27 20:21:00,
2013-09-27 21:26:00,62.0,59.0,29.73,North,356,2.0,2.0,90,0.00,,,0.00,WeatherCatV1.21B27,2013-09-27 20:26:00,
2013-09-27 21:31:00,62.1,59.1,29.73,SSE,151,0.0,4.0,90,0.00,,,0.00,WeatherCatV1.21B27,2013-09-27 20:31:00,
2013-09-27 21:36:00,62.1,59.1,29.73,NE,49,0.0,2.0,90,0.00,,,0.00,WeatherCatV1.21B27,2013-09-27 20:36:00,
2013-09-27 21:41:00,62.1,59.1,29.73,NNW,330,0.0,2.0,90,0.00,,,0.00,WeatherCatV1.21B27,2013-09-27 20:41:00,
2013-09-27 21:46:00,62.3,59.3,29.73,SE,131,2.0,4.0,90,0.00,,,0.00,WeatherCatV1.21B27,2013-09-27 20:46:00,
2013-09-27 21:51:00,62.4,59.4,29.73,NNW,337,1.0,2.0,90,0.00,,,0.00,WeatherCatV1.21B27,2013-09-27 20:51:00,
2013-09-27 21:56:00,62.6,59.3,29.73,ESE,115,2.0,5.0,89,0.00,,,0.00,WeatherCatV1.21B27,2013-09-27 20:56:00,
2013-09-27 22:01:00,62.7,59.4,29.73,SE,132,2.0,5.0,89,0.00,,,0.00,WeatherCatV1.21B27,2013-09-27 21:01:00,
2013-09-27 22:06:00,62.8,59.5,29.73,ESE,103,6.0,8.0,89,0.00,,,0.00,WeatherCatV1.21B27,2013-09-27 21:06:00,
2013-09-27 22:11:00,62.8,59.5,29.73,East,90,2.0,5.0,89,0.00,,,0.00,WeatherCatV1.21B27,2013-09-27 21:11:00,
2013-09-27 22:16:00,62.8,59.5,29.73,ESE,122,2.0,7.0,89,0.00,,,0.00,WeatherCatV1.21B27,2013-09-27 21:16:00,
2013-09-27 22:21:00,62.7,59.4,29.73,SE,128,1.0,2.0,89,0.00,,,0.00,WeatherCatV1.21B27,2013-09-27 21:21:00,
2013-09-27 22:26:00,62.6,59.6,29.73,SE,131,1.0,6.0,90,0.00,,,0.00,WeatherCatV1.21B27,2013-09-27 21:26:00,
2013-09-27 22:31:00,62.6,59.6,29.73,ESE,121,0.0,3.0,90,0.00,,,0.00,WeatherCatV1.21B27,2013-09-27 21:31:00,
2013-09-27 22:36:00,62.5,59.5,29.73,SSE,152,0.0,2.0,90,0.00,,,0.00,WeatherCatV1.21B27,2013-09-27 21:36:00,
2013-09-27 22:41:00,62.4,59.4,29.73,SE,130,1.0,4.0,90,0.00,,,0.00,WeatherCatV1.21B27,2013-09-27 21:41:00,
2013-09-27 22:46:00,62.4,59.4,29.73,ESE,104,1.0,1.0,90,0.00,,,0.00,WeatherCatV1.21B27,2013-09-27 21:46:00,
2013-09-27 22:51:00,62.3,59.3,29.73,SE,141,0.0,1.0,90,0.00,,,0.00,WeatherCatV1.21B27,2013-09-27 21:51:00,
2013-09-27 22:56:00,62.2,59.2,29.73,SSW,211,3.0,3.0,90,0.00,,,0.00,WeatherCatV1.21B27,2013-09-27 21:56:00,
2013-09-27 23:01:00,62.2,59.5,29.72,SE,139,0.0,2.0,91,0.00,,,0.00,WeatherCatV1.21B27,2013-09-27 22:01:00,
2013-09-27 23:06:00,62.2,59.5,29.72,NNW,330,0.0,2.0,91,0.00,,,0.00,WeatherCatV1.21B27,2013-09-27 22:06:00,
2013-09-27 23:11:00,62.2,59.5,29.72,NNW,335,0.0,2.0,91,0.00,,,0.00,WeatherCatV1.21B27,2013-09-27 22:11:00,
2013-09-27 23:16:00,62.2,59.5,29.72,ESE,103,1.0,2.0,91,0.00,,,0.00,WeatherCatV1.21B27,2013-09-27 22:16:00,
2013-09-27 23:21:00,62.2,59.5,29.72,ESE,108,2.0,5.0,91,0.00,,,0.00,WeatherCatV1.21B27,2013-09-27 22:21:00,
2013-09-27 23:26:00,62.1,59.4,29.72,ESE,113,2.0,4.0,91,0.00,,,0.00,WeatherCatV1.21B27,2013-09-27 22:26:00,
2013-09-27 23:31:00,62.1,59.4,29.72,ESE,105,3.0,5.0,91,0.00,,,0.00,WeatherCatV1.21B27,2013-09-27 22:31:00,
2013-09-27 23:36:00,62.1,59.4,29.72,East,85,0.0,1.0,91,0.00,,,0.00,WeatherCatV1.21B27,2013-09-27 22:36:00,
2013-09-27 23:41:00,62.0,59.3,29.72,ESE,117,1.0,2.0,91,0.00,,,0.00,WeatherCatV1.21B27,2013-09-27 22:41:00,
2013-09-27 23:46:00,61.9,59.2,29.72,East,99,2.0,3.0,91,0.00,,,0.00,WeatherCatV1.21B27,2013-09-27 22:46:00,
2013-09-27 23:51:00,61.9,59.2,29.72,NNW,343,1.0,1.0,91,0.00,,,0.00,WeatherCatV1.21B27,2013-09-27 22:51:00,
2013-09-27 23:56:00,61.8,59.1,29.72,ESE,108,1.0,1.0,91,0.00,,,0.00,WeatherCatV1.21B27,2013-09-27 22:56:00,